Location: Caltech
(34.1382°N, 118.1253°W)
Time: 20:16:44
(UTC-07:00)

BREEZE M DEB (TANK) - Visible Passes

Search period start: 29 April 2017 00:00
Search period end: 09 May 2017 00:00
Orbit: 313 x 13710 km, 49.6° (Epoch: 28 April)

Date Brightness Start Highest point End Pass type
(mag) Time Alt. Az. Time Alt. Az. Time Alt. Az.
30 Apr 10.2 19:37:02 10° W 19:57:43 17° WSW 20:37:38 10° SW visible
02 May 10.0 18:36:03 10° W 18:58:39 25° WSW 19:57:41 10° SSW visible
07 May 10.2 18:36:14 10° W 18:55:57 18° WSW 19:36:42 10° SSW visible
